Stündliche Wetter Abakumovka

Heute, 17 Juni, Donnerstag

Zeit Temperatur Niederschläge Wind Luftdruck Luftfeuchtigkeit
00:00 +18°C° 0 mm 3 m/S 747 mmHg 92%
01:00 +18°C° 0 mm 3 m/S 747 mmHg 93%
02:00 +17°C° 0 mm 3 m/S 748 mmHg 94%
03:00 +17°C° 0 mm 3 m/S 748 mmHg 95%
04:00 +17°C° 0 mm 4 m/S 748 mmHg 94%
05:00 +18°C° 0 mm 4 m/S 749 mmHg 92%
06:00 +18°C° 0 mm 4 m/S 749 mmHg 91%
07:00 +19°C° 0 mm 5 m/S 749 mmHg 85%
08:00 +21°C° 0 mm 5 m/S 750 mmHg 79%
09:00 +22°C° 0 mm 6 m/S 750 mmHg 73%
10:00 +23°C° 0 mm 5 m/S 750 mmHg 69%
11:00 +25°C° 0 mm 5 m/S 751 mmHg 66%
12:00 +26°C° 0 mm 5 m/S 751 mmHg 63%
13:00 +26°C° 0 mm 5 m/S 751 mmHg 62%
14:00 +26°C° 0 mm 5 m/S 751 mmHg 61%
15:00 +26°C° 0 mm 6 m/S 751 mmHg 59%
16:00 +25°C° 0 mm 5 m/S 752 mmHg 62%
17:00 +23°C° 0 mm 5 m/S 752 mmHg 65%
18:00 +22°C° 0 mm 5 m/S 752 mmHg 68%
19:00 +21°C° 0 mm 5 m/S 752 mmHg 73%
20:00 +19°C° 0 mm 4 m/S 753 mmHg 77%
21:00 +17°C° 0 mm 4 m/S 753 mmHg 82%
22:00 +15°C° 0 mm 4 m/S 753 mmHg 83%
23:00 +16°C° 0 mm 3 m/S 753 mmHg 83%

Morgen, 18 Juni, Freitag

Zeit Temperatur Niederschläge Wind Luftdruck Luftfeuchtigkeit
00:00 +14°C° 0 mm 3 m/S 753 mmHg 84%
01:00 +14°C° 0 mm 3 m/S 753 mmHg 85%
02:00 +13°C° 0 mm 3 m/S 754 mmHg 87%
03:00 +13°C° 0 mm 3 m/S 754 mmHg 88%
04:00 +13°C° 0 mm 3 m/S 754 mmHg 86%
05:00 +14°C° 0 mm 3 m/S 755 mmHg 83%
06:00 +15°C° 0 mm 4 m/S 755 mmHg 81%
07:00 +17°C° 0 mm 4 m/S 755 mmHg 75%
08:00 +19°C° 0 mm 5 m/S 755 mmHg 69%
09:00 +20°C° 0 mm 6 m/S 755 mmHg 63%
10:00 +21°C° 0 mm 6 m/S 755 mmHg 60%
11:00 +22°C° 0 mm 6 m/S 755 mmHg 56%
12:00 +23°C° 0 mm 6 m/S 756 mmHg 53%
13:00 +23°C° 0 mm 6 m/S 756 mmHg 53%
14:00 +23°C° 0 mm 6 m/S 755 mmHg 53%
15:00 +23°C° 0 mm 5 m/S 755 mmHg 53%
16:00 +23°C° 0 mm 5 m/S 755 mmHg 58%
17:00 +22°C° 0 mm 5 m/S 755 mmHg 62%
18:00 +22°C° 0 mm 5 m/S 755 mmHg 66%
19:00 +20°C° 0 mm 4 m/S 755 mmHg 72%
20:00 +18°C° 0 mm 4 m/S 756 mmHg 79%
21:00 +16°C° 0 mm 3 m/S 756 mmHg 85%
22:00 +16°C° 0 mm 3 m/S 756 mmHg 86%
23:00 +14°C° 0 mm 3 m/S 756 mmHg 87%

übermorgen, 19 Juni, Samstag

Zeit Temperatur Niederschläge Wind Luftdruck Luftfeuchtigkeit
00:00 +13°C° 0 mm 3 m/S 756 mmHg 88%
01:00 +13°C° 0 mm 3 m/S 756 mmHg 89%
02:00 +13°C° 0 mm 3 m/S 756 mmHg 90%
03:00 +12°C° 0 mm 3 m/S 756 mmHg 91%
04:00 +13°C° 0 mm 3 m/S 757 mmHg 88%
05:00 +14°C° 0 mm 2 m/S 757 mmHg 85%
06:00 +15°C° 0 mm 2 m/S 757 mmHg 83%
07:00 +17°C° 0 mm 3 m/S 757 mmHg 76%
08:00 +18°C° 0 mm 3 m/S 757 mmHg 69%
09:00 +20°C° 0 mm 4 m/S 757 mmHg 62%
10:00 +21°C° 0 mm 4 m/S 757 mmHg 59%
11:00 +22°C° 0 mm 4 m/S 757 mmHg 56%
12:00 +23°C° 0 mm 4 m/S 757 mmHg 52%
13:00 +23°C° 0 mm 4 m/S 756 mmHg 52%
14:00 +25°C° 0 mm 4 m/S 756 mmHg 51%
15:00 +25°C° 0 mm 4 m/S 756 mmHg 50%
16:00 +25°C° 0 mm 3 m/S 756 mmHg 55%
17:00 +24°C° 0 mm 3 m/S 755 mmHg 59%
18:00 +24°C° 0 mm 3 m/S 755 mmHg 63%
19:00 +21°C° 0 mm 2 m/S 755 mmHg 68%
20:00 +19°C° 0 mm 2 m/S 755 mmHg 73%
21:00 +17°C° 0 mm 2 m/S 755 mmHg 78%
22:00 +17°C° 0 mm 2 m/S 755 mmHg 80%
23:00 +16°C° 0 mm 2 m/S 755 mmHg 82%

20 Juni, Sonntag

Zeit Temperatur Niederschläge Wind Luftdruck Luftfeuchtigkeit
00:00 +15°C° 0 mm 2 m/S 755 mmHg 83%
01:00 +15°C° 0 mm 2 m/S 755 mmHg 85%
02:00 +15°C° 0 mm 2 m/S 755 mmHg 86%
03:00 +14°C° 0 mm 2 m/S 755 mmHg 87%
04:00 +15°C° 0 mm 2 m/S 755 mmHg 86%
05:00 +16°C° 0 mm 2 m/S 755 mmHg 85%
06:00 +16°C° 0 mm 2 m/S 756 mmHg 83%
07:00 +18°C° 0 mm 2 m/S 756 mmHg 77%
08:00 +20°C° 0 mm 3 m/S 755 mmHg 70%
09:00 +22°C° 0 mm 3 m/S 755 mmHg 64%
10:00 +24°C° 0 mm 3 m/S 755 mmHg 60%
11:00 +25°C° 0 mm 3 m/S 755 mmHg 56%
12:00 +26°C° 0 mm 3 m/S 755 mmHg 53%
13:00 +27°C° 0 mm 3 m/S 754 mmHg 52%
14:00 +27°C° 0 mm 3 m/S 754 mmHg 51%
15:00 +28°C° 0 mm 3 m/S 754 mmHg 51%
16:00 +27°C° 0 mm 3 m/S 754 mmHg 56%
17:00 +27°C° 0 mm 3 m/S 753 mmHg 60%
18:00 +27°C° 0 mm 2 m/S 753 mmHg 65%
19:00 +25°C° 0 mm 2 m/S 753 mmHg 70%
20:00 +23°C° 0 mm 2 m/S 753 mmHg 74%
21:00 +21°C° 0 mm 2 m/S 753 mmHg 79%
22:00 +20°C° 0 mm 2 m/S 753 mmHg 80%
23:00 +19°C° 0 mm 3 m/S 753 mmHg 81%

21 Juni, Montag

Zeit Temperatur Niederschläge Wind Luftdruck Luftfeuchtigkeit
00:00 +19°C° 0 mm 3 m/S 753 mmHg 82%
01:00 +18°C° 0 mm 3 m/S 753 mmHg 84%
02:00 +18°C° 0 mm 3 m/S 753 mmHg 85%
03:00 +17°C° 0 mm 2 m/S 753 mmHg 86%
04:00 +18°C° 0 mm 2 m/S 753 mmHg 85%
05:00 +18°C° 0 mm 2 m/S 753 mmHg 84%
06:00 +19°C° 0 mm 2 m/S 753 mmHg 83%
07:00 +21°C° 0 mm 2 m/S 753 mmHg 76%
08:00 +24°C° 0 mm 3 m/S 753 mmHg 70%
09:00 +26°C° 0 mm 3 m/S 753 mmHg 63%
10:00 +27°C° 0 mm 3 m/S 753 mmHg 60%
11:00 +28°C° 0 mm 3 m/S 753 mmHg 56%
12:00 +29°C° 0 mm 3 m/S 753 mmHg 52%
13:00 +30°C° 0 mm 3 m/S 753 mmHg 51%
14:00 +30°C° 0 mm 3 m/S 752 mmHg 49%
15:00 +31°C° 0 mm 3 m/S 752 mmHg 48%
16:00 +30°C° 0 mm 3 m/S 752 mmHg 53%
17:00 +30°C° 0 mm 2 m/S 752 mmHg 57%
18:00 +29°C° 0 mm 2 m/S 752 mmHg 62%
19:00 +28°C° 0 mm 2 m/S 752 mmHg 67%
20:00 +26°C° 0 mm 2 m/S 752 mmHg 71%
21:00 +24°C° 0 mm 2 m/S 752 mmHg 76%
22:00 +23°C° 0 mm 2 m/S 752 mmHg 77%
23:00 +21°C° 0 mm 2 m/S 752 mmHg 78%

22 Juni, Dienstag

Zeit Temperatur Niederschläge Wind Luftdruck Luftfeuchtigkeit
00:00 +21°C° 0 mm 2 m/S 752 mmHg 79%
01:00 +20°C° 0 mm 2 m/S 752 mmHg 80%
02:00 +20°C° 0 mm 2 m/S 752 mmHg 82%
03:00 +19°C° 0 mm 2 m/S 752 mmHg 83%
04:00 +20°C° 0 mm 2 m/S 752 mmHg 82%
05:00 +21°C° 0 mm 2 m/S 752 mmHg 82%
06:00 +21°C° 0 mm 2 m/S 752 mmHg 81%
07:00 +24°C° 0 mm 2 m/S 752 mmHg 76%
08:00 +26°C° 0 mm 2 m/S 752 mmHg 71%
09:00 +28°C° 0 mm 3 m/S 752 mmHg 66%
10:00 +29°C° 0 mm 3 m/S 752 mmHg 62%
11:00 +30°C° 0 mm 3 m/S 752 mmHg 58%
12:00 +31°C° 0 mm 3 m/S 752 mmHg 54%
13:00 +31°C° 0 mm 3 m/S 752 mmHg 53%
14:00 +31°C° 0 mm 3 m/S 752 mmHg 51%
15:00 +33°C° 0 mm 3 m/S 752 mmHg 50%
16:00 +31°C° 0 mm 3 m/S 752 mmHg 54%
17:00 +31°C° 0 mm 3 m/S 752 mmHg 58%
18:00 +30°C° 0 mm 2 m/S 752 mmHg 63%
19:00 +29°C° 0 mm 2 m/S 752 mmHg 67%
20:00 +27°C° 0 mm 2 m/S 752 mmHg 72%
21:00 +25°C° 0 mm 2 m/S 752 mmHg 77%
22:00 +24°C° 0 mm 2 m/S 752 mmHg 78%
23:00 +24°C° 0 mm 2 m/S 752 mmHg 80%
Mehr zeigen

Wir brauchen deine Erlaubnis

Meteoprog und unser Service Anbieter werden persönliche Daten aufbewahren, so wie Cookies, Geräte Bezeichnung oder ähnliche Technologien von deinem Gerät und Prozess, so wie Persönliche Daten Inhalte und Werbungen, genauso wie social Media und den Verkehr zu analysieren.

  • Aufbewahrung und/oder Zugang zu deiner Geräte Informationen.

    Cookies, Geräte Bezeichnung oder andere Informationen, können aufbewahrt oder Zugang zu deinem Gerät erhalten, für den Grund, der oben angegeben wird.

  • Personalisierte Werbung und Inhalte, Messungen, Einblick in das Publikum und Produkt Entwicklung.

    Werbungen und Inhalte können personalisiert werden, basierend auf ein Profil. Mehr Daten können besser personalisierte Werbungen und Inhalte hinzufügen. Werbung und Inhalte können gezeigt und gemessen werden. Einblicke über das Publikum, welche die Werbung gesehen haben und den Inhalt, können abgeleitet werden. So wie Daten können genutzt werden, um es zu verbessern oder die Benutzer Erfahrung zu verbessern das System und die Software.

Wenn du “Ich stimme zu” klickst, erlaubst du uns, die Cookies zu benutzen die Geräte Bezeichnung, den Web oder ähnliche Technologien zu benutzen. Deine Settings, können in deinem Gerät bei deinem Browser geändert werden.

Für den bestimmten Zweck, berechtigten Interessen beruhen darauf, mehr als auf den Inhalt. Du kannst mehr darüber in unseren Privaten und Cookie Politik lesen.